Regional Weather Roundup
Issued by NWS

Home | Current Version | Previous Version | Text Only | Print | Product List | Glossary Off
Versions: 1 2 3 4 5 6 7 8 9 10 11 12 13 14 15 16 17 18 19 20 21 22 23 24 25 26 27 28 29 30 31 32 33 34 35 36 37 38 39 40 41 42 43 44 45 46 47 48 49 50

000
ASUS43 KDMX 220207
RWRIA

WEATHER ROUNDUP FOR IOWA
NATIONAL WEATHER SERVICE DES MOINES IA
900 PM CDT SUN SEP 21 2014

NOTE: "FAIR" INDICATES FEW OR NO CLOUDS BELOW 12,000 FEET WITH NO
SIGNIFICANT WEATHER AND/OR OBSTRUCTIONS TO VISIBILITY.

* - THESE STATIONS ARE NOT NWS STATIONS...THUS NOT UNDER NWS
QUALITY CONTROL.  THEY ALSO DO NOT REPORT WEATHER SUCH
AS PRECIPITATION OR FOG.

IAZ001>003-012>014-020>022-031>034-043>046-220300-
   NORTHWEST IOWA

CITY           SKY/WX    TMP DP  RH WIND       PRES   REMARKS
CARROLL *      CLEAR     52  48  87 CALM      30.24R
CHEROKEE *     CLEAR     52  50  93 CALM      30.25R
DENISON *      CLEAR     54  52  94 CALM      30.23R
LE MARS *        N/A     54  50  87 CALM      30.25R
ORANGE CITY *  CLEAR     61  48  63 CALM      30.25R
SHELDON *      CLEAR     50  48  93 CALM      30.24R
SIOUX CITY     CLEAR     59  49  69 N3        30.24R
SPENCER        CLEAR     54  47  77 N6        30.24R
STORM LAKE *   CLEAR     54  50  87 N6        30.24R
$$

IAZ055>058-069>071-079>083-090>094-220300-
   SOUTHWEST IOWA

CITY           SKY/WX    TMP DP  RH WIND       PRES   REMARKS
ATLANTIC *     CLEAR     55  50  82 CALM      30.23R
AUDUBON *      CLEAR     52  46  82 CALM      30.24R
CLARINDA *     CLEAR     52  50  93 CALM      30.25R
COUNCIL BLFS * CLEAR     61  50  67 N3        30.23R
CRESTON *      CLEAR     57  48  72 N7        30.23R
HARLAN  *      CLEAR     54  50  87 N5        30.27R
LAMONI         CLEAR     57  49  74 N6        30.22R
RED OAK *      CLEAR     54  50  87 NE5       30.24R
SHENANDOAH *     N/A     57  50  77 CALM      30.24R
$$

IAZ047>049-059>061-072>074-084-220300-
   CENTRAL IOWA

CITY           SKY/WX    TMP DP  RH WIND       PRES   REMARKS
AMES           CLEAR     58  49  72 N8        30.20R
ANKENY *       CLEAR     55  50  82 N5        30.21R
CHARITON *     CLEAR     55  50  82 N6        30.20R
DES MOINES     CLEAR     61  49  64 N6        30.21R
GRINNELL*      CLEAR     54  48  82 CALM      30.20R
KNOXVILLE *    CLEAR     57  48  72 NW3       30.19R
MARSHALLTOWN   CLEAR     55  48  77 N9        30.19R
PELLA *        CLEAR     54  48  82 CALM      30.21R
PERRY *          N/A     57  48  72 N5        30.23R
$$

IAZ004>006-015-016-023>025-035-036-220300-
   NORTH CENTRAL IOWA

CITY           SKY/WX    TMP DP  RH WIND       PRES   REMARKS
ALGONA *       CLEAR     54  50  87 CALM      30.24R
CLARION *        N/A     54  48  82 N5        30.23R
ESTHERVILLE    CLEAR     50  47  89 NW3       30.24R
FORT DODGE *   CLEAR     55  46  71 N3        30.24R
MASON CITY     CLEAR     52  48  86 NW8       30.24R
FOREST CITY *  CLEAR     54  48  82 CALM      30.23R
IOWA FALLS *     N/A     54  48  82 N5        30.22R
$$

IAZ007>011-017>019-026>030-037>042-050>054-066-220300-
   NORTHEAST IOWA

CITY           SKY/WX    TMP DP  RH WIND       PRES   REMARKS
CEDAR RAPIDS   CLEAR     52  49  89 NW7       30.16R
CHARLES CITY * CLEAR     52  48  87 NW6       30.21R
CLINTON *      CLEAR     52  46  82 N7        30.17R
DECORAH *      CLEAR     52  46  82 NW6       30.18R
DUBUQUE        CLEAR     52  47  83 NW9       30.16R
MONTICELLO *   CLEAR     54  48  82 N5        30.16S
OELWEIN *      CLEAR     50  46  87 NW7       30.20R
WATERLOO       CLEAR     52  47  83 CALM      30.19R
$$

IAZ064-065-067-068-078-220300-
   EAST CENTRAL IOWA

CITY           SKY/WX    TMP DP  RH WIND       PRES   REMARKS
DAVENPORT      CLEAR     52  46  80 NW6       30.16R
IOWA CITY        N/A     56  49  77 NW5       30.18R
MT. PLEASANT * MOCLDY    61  50  67 NW6       30.18R
MUSCATINE *    CLEAR     57  48  72 NW6       30.17R
QUAD CITIES    CLEAR     61  48  62 N7        30.15R
$$

IAZ062-063-075>077-085>089-095>099-220300-
   SOUTHEAST IOWA

CITY           SKY/WX    TMP DP  RH WIND       PRES   REMARKS
BURLINGTON     CLEAR     57  50  77 NW7       30.16R
FAIRFIELD *    CLEAR     54  48  82 NW7       30.19R
FORT MADISON * PTCLDY    57  52  82 NW5       30.18R
KEOKUK *       MOCLDY    55  52  88 CALM      30.17R
OSKALOOSA *      N/A     54  50  87 NW6       30.20R
CENTERVILLE *  CLEAR     54  50  87 N5        30.21R
OTTUMWA        CLEAR     54  48  80 N6        30.19R
WASHINGTON *   CLEAR     55  50  82 NW6       30.18R
$$

ABBREVIATIONS USED IN REMARKS
   TC - TEMPERATURES IN CELSIUS
  WCI - WIND CHILL INDEX
   HX - HEAT INDEX
  VSB - VISIBILITY
$$



USA.gov is the U.S. government's official web portal to all federal, state and local government web resources and services.